This demonstration page uses our WeatherBlox Daily Observations layout. Learn more.

Left ArrowRight Arrow

39.95238, -75.16362

Hourly Observations for November 20, 2016

Temp ( °F °C ) Dew Point ( °F °C ) Humidity (%) Winds ( mph kmh ) Pressure ( in mb ) Visibility ( mi km ) Precip ( " mm )
12:54 am 00:54 Cloudy 40 4.4 31 -0.6 70 70 W 17 28 29.72 1006 10 16 0.00 0.00
1:54 am 01:54 Cloudy 41 5 29 -1.7 62 62 W 24 39 29.71 1006 10 16 0.00 0.00
2:54 am 02:54 Cloudy 41 5 26 -3.3 55 55 W 21 33 29.71 1006 10 16 0.00 0.00
3:54 am 03:54 Mostly Cloudy 40 4.4 25 -3.9 55 55 W 17 28 29.71 1006 10 16 0.00 0.00
4:54 am 04:54 Cloudy 40 4.4 23 -5 51 51 W 15 24 29.72 1007 10 16 0.00 0.00
5:54 am 05:54 Mostly Cloudy 40 4.4 23 -5 51 51 W 17 28 29.73 1007 10 16 0.00 0.00
6:54 am 06:54 Mostly Cloudy 39 3.9 23 -5 53 53 W 18 30 29.73 1007 10 16 0.00 0.00
7:54 am 07:54 Mostly Cloudy 40 4.4 23 -5 51 51 W 22 35 29.73 1007 10 16 0.00 0.00
8:54 am 08:54 Mostly Cloudy 41 5 23 -5 49 49 W 30 48 29.71 1006 10 16 0.00 0.00
9:54 am 09:54 Mostly Cloudy 43 6.1 23 -5 45 45 WNW 26 43 29.71 1006 10 16 0.00 0.00
10:54 am 10:54 Mostly Cloudy 43 6.1 23 -5 45 45 W 30 48 29.70 1006 10 16 0.00 0.00
11:54 am 11:54 Cloudy 43 6.1 24 -4.4 47 47 W 28 44 29.69 1005 10 16 0.00 0.00
12:54 pm 12:54 Mostly Cloudy 43 6.1 23 -5 45 45 W 31 50 29.68 1005 10 16 0.00 0.00
1:54 pm 13:54 Mostly Cloudy 44 6.7 24 -4.4 45 45 W 32 52 29.68 1005 10 16 0.00 0.00
2:50 pm 14:50 Mostly Cloudy with Light Snow 43 6 25 -4 49 49 WNW 24 39 29.68 1005 10 16 0.00 0.00
2:54 pm 14:54 Mostly Cloudy with Light Snow 43 6.1 24 -4.4 47 47 W 29 46 29.68 1005 10 16 0.00 0.03
3:13 pm 15:13 Mostly Cloudy 43 6.1 23 -5 45 45 W 24 39 29.68 1005 10 16 0.00 0.03
3:54 pm 15:54 Mostly Cloudy 43 6.1 22 -5.6 43 43 W 18 30 29.70 1006 10 16 0.00 0.03
4:54 pm 16:54 Cloudy 43 6.1 22 -5.6 43 43 W 21 33 29.70 1006 10 16 0.00 0.00
5:54 pm 17:54 Cloudy 43 6.1 22 -5.6 43 43 W 23 37 29.71 1006 10 16 0.00 0.00
6:54 pm 18:54 Cloudy 42 5.6 21 -6.1 43 43 W 25 41 29.71 1006 10 16 0.00 0.00
7:54 pm 19:54 Cloudy 42 5.6 20 -6.7 41 41 W 24 39 29.72 1006 10 16 0.00 0.00
8:54 pm 20:54 Cloudy 42 5.6 20 -6.7 41 41 W 25 41 29.72 1007 10 16 0.00 0.00
9:54 pm 21:54 Cloudy 41 5 20 -6.7 43 43 W 25 41 29.72 1006 10 16 0.00 0.00
10:54 pm 22:54 Cloudy 40 4.4 20 -6.7 45 45 W 22 35 29.72 1006 10 16 0.00 0.00
11:54 pm 23:54 Cloudy 40 4.4 19 -7.2 43 43 W 26 43 29.72 1007 10 16 0.00 0.00

Powered by AerisWeather